Tracking 17267 objects as of 30-August-2015
HD Live streaming from Space Station

ASIASTAR

Track ASIASTAR now!
ASIASTAR is classified as:


NORAD ID: 26107
Int'l Code: 2000-016A
Perigee: 35,774.9 km
Apogee: 35,813.4 km
Inclination: 0.3 °
Period: 1,436.1 minutes
Semi major axis: 42165 km
RCS: 19.9526 m2 (large)
Launch date: March 21, 2000
Source: United States (US)

Africa, Middle East, Asia, Latin America and Caribbean. Services to underserved emerging markets; low-cost portable receivers.
Your satellite tracking list
Your tracking list is empty





NASA's NSSDC Master Catalog

Two Line Element Set (TLE):
1 26107U 00016A   15241.89503689 -.00000355 +00000-0 +00000-0 0  9998
2 26107 000.3275 075.2497 0004567 086.3294 243.4159 01.00270403056379

Source of the keplerian elements: AFSPC

N2YO: 323